Tracking 19817 objects as of 17-Aug-2019
HD Live streaming from Space Station
objects crossing your sky now

COSMOS 2251 DEB

Track COSMOS 2251 DEB now!
10-day predictions


NORAD ID: 37484
Int'l Code: 1993-036BLM
Perigee: 759.6 km
Apogee: 829.3 km
Inclination: 73.8 °
Period: 100.6 minutes
Semi major axis: 7165 km
RCS: 0.0078 m2 (small)
Launch date: June 16, 1993
Source: Commonwealth of Independent States (former USSR) (CIS)
Launch site: PLESETSK MISSILE AND SPACE COMPLEX (PKMTR)

Note: This is SATELLITE DEBRIS
aabbcc
Your satellite tracking list
Your tracking list is empty




NASA's NSSDC Master Catalog

Two Line Element Set (TLE):
1 37484U 93036BLM 19228.27811525  .00000228  00000-0  95283-4 0  9993
2 37484  73.8287 172.3385 0048696 278.8565 152.7184 14.31325374516863
Source of the keplerian elements: AFSPC